Resultados

5000 Electronico
Fecha Serie Viento Presión Humedad Temperatura
16-09-2018 Final_A
Puesto Andanivel Nombre Dia Mes Año Pais Marca
01 Molina Marcos Julian 11 5 1993 ATERU ARDA 14.25.97
02 Niestroj Alan Esteban 25 9 1992 ETFAM - 14.38.76
03 Pensa Natalio Emmanuel 19 8 1989 QUIRO - 14.54.29
04 Michia Marcelo Alejandro 23 6 1991 JMCOR FMARP 15.00.79
05 Fernandez Juan Estevan 12 6 1997 ASAAM AMA 15.07.97
06 Ruiz Antonio 13 9 1994 EMCDC - 15.09.67
07 Da Silva Agustn Adrian 21 2 1998 EMAOB - 15.10.90
08 Lucas Leonardo Castro Rasgado 30 9 1994 DEFEN ASOCA 15.13.60
09 Luero Matias 12 3 1988 JMCOR FMARP 15.15.46
10 Ocampo Lautaro 17 2 1998 VYR ASA 15.18.77
11 Gutierrez Ivan 5 7 1990 PGARI - 15.30.87
12 Oliva Carlos Ignacio 27 3 1987 FCMAX - 15.32.10
13 Toledo Juan Ignacio 17 5 1987 ATERU ARDA 15.34.14
14 Vidal Carlos 19 11 1986 AAAPC - 15.34.79
15 Aristei Ignacio 15 12 1975 FCMAX - 15.47.54
16 Mauricio Agustin Garzon Carabajal 29 3 1998 APB - 15.50.57
17 Reales Facundo Ariel 28 6 1985 FCMAX - 15.50.61
18 Vasquez Martin Alfonso 19 5 1992 EMCDC - 16.02.89
19 Loff Fonseca Luciano 19 11 1983 NCAF - 16.07.79
20 Russo Franco 30 7 1994 AAMTE - 16.09.66
21 Holzmann Juan Pablo 2 2 1995 LCFAM - 16.14.86
22 Gomez Matias Alexander 26 1 1997 CCCAM - 16.16.25
23 Baamonde Meyer Lucas Ivan 18 12 1993 JMCOR FMARP 16.17.83
24 Ansio Juan 9 4 1989 ATERU ARDA 16.19.96
25 Cisternas, Agustin David 9 3 1997 CJMPC - 16.23.68
26 Leguizamon Diego 17 7 1988 ATERU ARDA 16.25.81
27 Argaaraz Ballester Guillermo Miguel 16 3 1992 L�FA - 16.27.76
28 Singh Rene 23 11 1992 EMSAL CENTR 16.32.72
29 Jose Sastre 19 4 1996 FCMAX - 16.35.29
30 Lopez Lautaro Tadeo 11 7 1999 EMAPI - 16.35.99
31 Fernandez Joaquin Ignacio 23 8 1991 L�FA - 16.45.77
32 Winter Aaron 30 11 1991 ATERU ARDA 16.52.38
33 Heffner Ignacio 10 8 1999 ASCC AABAR 17.14.90
34 Olibera Elias 22 10 1988 ATERU ARDA 17.19.77
35 Galarza Axel Gabriel 23 12 1994 CJMPC - 17.20.64
36 Condori Franco Grabriel 20 6 1993 L�FA - 17.27.18
37 Aguero Alexis 23 1 1995 CADAF - 17.30.75
38 Fernandez Emmanuel 13 6 1986 JMCOR FMARP 17.31.32
39 Bustos Sebastian 1 7 1999 JMCOR FMARP 17.44.02
40 Villabona Mauricio 4 10 1985 CCCAM - 17.48.19
41 Galvan Juan Pablo 21 9 1993 EBFAM - 17.50.91
42 Domecq Sebastian 8 10 1996 AAY - 17.57.21
43 Ariel Carrascosa 5 4 1977 AAY - 17.57.33
44 Cortes Pablo 17 12 1991 AAY - 18.09.20
45 Garay Igancio Martin 3 12 1981 CABPB - 18.20.54
46 Barrientos Pablo 27 3 1998 CADAF - 18.26.11
47 Talento Guillermo Ezequiel 27 12 1982 CACHI - 18.33.73
48 Santiago Corderas 18 4 1985 AAY - 19.55.16
49 Duarte Augusto 20 2 1976 PGARI - 20.14.73
50 Braian Ruiz 21 1 1993 AAY - 22.39.40
99 Sequeira Jonatan 4 4 1987 CASCM - DNF
99 Arce Alberto Marcelo 4 3 1972 CADAF - DNS
99 Cardozo Eduardo 7 9 1983 L�FA DNS
99 Castillo Emanuel Daniel 12 1 2000 ADR - DNF
99 Rodriguez Gonzalo Emanuel 13 1 1989 EMAPI - DNS
99 Orozco Sergio Osvaldo 11 1 1967 CADAF - DNS
99 Florentin Cristian 24 4 1982 AAY - DNS
99 Olano Maximo 13 2 1975 CABPB - DNS
99 Maldonado Gaston 25 7 1987 FCMAX - DNS
99 Lahetjuzan Alfredo Leonel 26 3 1988 UAJGR - DNF
99 Costa Enrique Jose 30 4 1975 EMACO ASCER DNS